Location: Dreilärchen
(47.9312°N, 8.6113°E)
Time: 20:34:31
(UTC+00:00)

USA 32 - Pass Details

Date: 26 May 2022
Orbit: 775 x 784 km, 85.0° (Epoch: 25 June)

Event Time Altitude Azimuth Distance (km) Brightness Sun altitude
Exits shadow 00:34:56 37° 191° (S) 1,212 4.5 -19.1°
Maximum altitude 00:37:06 83° 275° (W) 796 4.0 -19.0°
Drops below altitude 10° 00:42:24 10° 4° (N) 2,350 7.7 -18.7°
Sets 00:44:46 0° 6° (N) 3,281 8.7 -18.6°
